www.pogodaiklimat.ru

Погода и климат >> Архив погоды >> Ирак >> Hella


ПОГОДА в Hella

  • Прогноз погоды в Hella
  • Монитор погоды в Hella
  • Климат города

АРХИВ ПОГОДЫ в Hella

Время (UTC), дата Ветер
(напр.,м/с)
 
Видим.   Явления Облачность Т
(С)
Тd
(С)
f
(%)
Тe
(С)
Тes
(С)
Комфортность P
(гПа)
Po
(гПа)
Тmin
(С)
Tmax
(С)
R
(мм)
R24
(мм)
S
(см)
09 13.06 ЮВ 2 10 км ясно +40.0 +12.3 19 +39 +61 опасность
солнечного
удара
999.3 999.0
12 13.06 Ю 4 10 км 1/1 1050 м
[Cu hum]
+41.0 +4.9 11 +38 +46 очень
жарко
997.3 997.0
15 13.06 штиль 0 10 км 1/1 1050 м
[Cu hum]
+39.4 +10.4 18 +38 +40 очень
жарко
996.3 996.0
18 13.06 штиль 0 10 км ясно +33.4 +10.6 25 +33 +33 жарко 996.3 996.0 +41.4
21 13.06 ЮВ 3 10 км ясно +30.6 +8.2 25 +30 +30 жарко 997.0 997.0
00 14.06 штиль 0 10 км ясно +29.0 +9.3 29 +29 +29 жарко 995.4 995.0
03 14.06 С 4 8000 м пыль ясно +27.0 +13.5 43 +29 +29 жарко 997.7 998.0
06 14.06 С 4 8000 м пыль ясно +31.4 +12.1 31 +32 +41 жарко 998.3 998.0 +26.5
09 14.06 С 9 6000 м пыльный позёмок ясно +37.6 +14.2 25 +38 +41 очень
жарко
999.4 999.0
12 14.06 С 9 8000 м пыльный позёмок ясно +39.8 +10.2 17 +38 +40 очень
жарко
999.2 999.0
15 14.06 З 3 10 км ясно +39.0 +11.5 19 +38 +39 очень
жарко
998.7 999.0
18 14.06 З 4 10 км ясно +32.0 +14.9 36 +34 +34 душно 1000.8 1001.0 +41.5
21 14.06 штиль 0 10 км ясно +30.0 +11.0 31 +30 +30 жарко 1002.5 1003.0
00 15.06 штиль 0 10 км ясно +26.4 +13.2 44 +28 +28 жарко 1001.8 1002.0
03 15.06 штиль 0 10 км ясно +25.0 +15.0 54 +28 +29 жарко 1003.0 1003.0
06 15.06 С 6 10 км ясно +32.6 +15.0 35 +35 +40 душно 1004.6 1005.0 +24.8
09 15.06 штиль 0 10 км ясно +38.4 +13.1 22 1004.3 1004.5
12 15.06 СЗ 6 10 км 3/3 1050 м
[Cu hum]
+40.0 +11.7 19 +39 +43 очень
жарко
1003.2 1003.0
15 15.06 СЗ 3 10 км ясно +38.3 +13.2 22 +38 +39 очень
жарко
1002.4 1002.0
21 15.06 штиль 0 10 км ясно +28.6 +15.2 44 +31 +31 жарко 1003.3 1003.0
03 16.06 штиль 0 10 км ясно +26.0 +16.3 55 +29 +31 душно 1003.6 1004.0
21 16.06 штиль 0 10 км ясно +28.8 +13.0 38 +30 +30 жарко 1005.8 1006.0
00 17.06 штиль 0 10 км ясно +27.4 +13.6 43 +29 +29 жарко 1005.0 1005.0
03 17.06 штиль 0 10 км ясно +27.6 +11.6 37 +29 +30 жарко 1005.4 1005.0
06 17.06 СЗ 3 10 км ясно +33.2 +13.1 30 +34 +45 очень
жарко
1005.2 1005.0 +27.2
09 17.06 С 5 10 км ясно +40.4 +9.4 16 +39 +50 очень
жарко
1004.9 1005.0
12 17.06 С 7 10 км ясно +42.2 +7.3 12 +40 +43 очень
жарко
1002.9 1003.0
15 17.06 С 3 10 км ясно +40.2 +9.9 16 +35 +36 очень
жарко
1002.5 1009.4
18 17.06 штиль 0 10 км ясно +32.6 +13.9 32 +34 +34 очень
жарко
1002.4 1002.0 +42.6
21 17.06 штиль 0 10 км ясно +29.2 +16.1 45 +32 +32 душно 1002.0 1002.0
00 18.06 штиль 0 10 км ясно +27.4 +15.6 49 +30 +30 жарко 1001.2 1001.0
03 18.06 штиль 0 10 км ясно +26.6 +14.3 47 +29 +30 жарко 1002.0 1002.0
06 18.06 С 3 10 км ясно +32.2 +13.2 32 +33 +44 жарко 1002.8 1003.0 +26.0
09 18.06 С 4 10 км ясно +38.4 +14.1 24 +39 +54 опасность
солнечного
удара
1002.7 1003.0
12 18.06 С 2 10 км ясно +40.6 +13.3 20 +41 +54 опасность
перегрева
1001.5 1002.0
15 18.06 СЗ 2 10 км ясно +38.6 +12.4 21 +38 +39 очень
жарко
1001.4 1001.0
18 18.06 СЗ 2 10 км ясно +32.8 +9.8 24 +32 +32 жарко 1003.0 1003.0 +40.8
21 18.06 штиль 0 10 км ясно +29.8 +13.4 37 +31 +31 жарко 1003.2 1003.0
00 19.06 СЗ 2 10 км ясно +27.8 +11.9 37 +29 +29 жарко 1003.1 1003.0
03 19.06 штиль 0 10 км ясно +26.4 +14.0 46 +29 +30 жарко 1003.9 1004.0
09 19.06 С 6 10 км ясно +39.0 +13.4 22 +39 +48 очень
жарко
1005.1 1005.0
12 19.06 С 2 10 км ясно +39.5 +12.7 20 +39 +52 опасность
солнечного
удара
1004.9 1005.0
18 19.06 штиль 0 10 км ясно +32.2 +15.3 36 +34 +34 душно 1005.4 1005.0 +40.6
00 20.06 штиль 0 10 км ясно +26.6 +13.8 45 +29 +29 жарко 1004.8 1005.0
03 20.06 штиль 0 10 км ясно +26.6 +12.9 43 +28 +30 жарко 1005.9 1006.0

 

Местоположение метеостанции Hella (Ирак): широта 32.45 долгота 44.45 высота над уровнем моря 27 м.

В архиве по умолчанию представлена погода в Hella за последнюю неделю. Архивные данные за месяц целиком и за предыдущие месяцы, начиная с января 2011 года, Вы можете получить, выбрав интересующий диапазон дат из раскрывающегося списка и нажав кнопку "Ввод!".


*Определитесь, кто Вы:
робот инопланетянин человек

Внимание! Время в таблицах - всемирное. Для получения местного времени необходимо прибавить поправку, которая в Hella равна 3 ч.

Смотрите также архив погоды в соседних городах и на ближайших метеорологических станциях:

Погода в Karbalaa (Ирак) (45 км)
Погода в Najaf (Ирак) (54 км)
Погода в Diwaniya (Ирак) (72 км)
Погода в Azizyah (Ирак) (78 км)
Погода в Baghdad (Ирак) (89 км)
Погода в Ubaydah Bin Al Jarrah (Ирак) (122 км)
Погода в Ayn Al-Tamar (Ирак) (125 км)
Погода в Heet (Ирак) (147 км)
Погода в Samawah (Ирак) (150 км)
Погода в Ramadi (Ирак) (153 км)

Пояснения к столбцам:

Ветер - указаны скорость ветра в м/с - средняя за 10 мин, порывы в срок и между сроками (в фигурных скобках) и направление, откуда дует ветер: С - северный, СВ - северо-восточный, В - восточный, ЮВ - юго-восточный, Ю - южный, ЮЗ - юго-западный, З - западный, СЗ - северо-западный.
Видимость - горизонтальная дальность видимости в метрах или километрах. При видимости от 1 до 10 км при отсутствии осадков обычно наблюдается дымка, при ухудшении видимости до 1 км и менее - туман. В сухую погоду видимость может ухудшаться дымом, пылью или мглою.
Явления - указаны атмосферные явления, наблюдавшиеся в срок или в последний час перед сроком; фигурными скобками обозначены явления, наблюдавшиеся между сроками (за 1-3 часа до срока); квадратными скобками обозначены град или гололедные отложения с указанием их диаметра в мм.
Облачность - указаны через наклонную черту общая и нижняя облачность в баллах и высота нижней границы облаков в метрах; квадратными скобками обозначены формы облаков: Ci - перистые, Cs - перисто-слоистые, Cc - перисто-кучевые, Ac - высококучевые, As - высокослоистые, Sc - слоисто-кучевые, Ns - слоисто-дождевые, Cu - кучевые, Cb - кучево-дождевые. Подробнее классификацию облаков см. в Атласе облаков (PDF).
T - Температура воздуха - температура, измеренная на высоте 2 м над землей.
Td - Температура точки росы - температура, при понижении до которой содержащийся в воздухе водяной пар достигнет насыщения.
f - Относительная влажность воздуха - влажноcть воздуха, измеренная на высоте 2 м над землей.
Te - Эффективная температура - температура, которую ощущает одетый по сезону человек в тени. Характеристика душности погоды. При расчете учитывается влияние влажности воздуха и скорости ветра на теплоощущения человека.
Tes - Эффективная температура на солнце - температура, которую ощущает человек, с поправкой на солнечный нагрев. Характеристика знойности погоды. Зависит от высоты солнца над горизонтом, облачности и скорости ветра. Ночью, в пасмурную погоду, а также при ветре 12 м/с и более поправка равна нулю.
P - Атмосферное давление - приведенное к уровню моря атмосферное давление.
Po - Атмосферное давление - измеренное на уровне метеостанции атмосферное давление.
Tmin - Минимальная температура - минимум температуры воздуха на высоте 2 м над землей.
Tmax - Максимальная температура - максимум температуры воздуха на высоте 2 м над землей.
R - Количество осадков - Количество выпавших осадков за период времени, мм. При наведении курсора мыши на число - период времени, за который выпало указанное количество осадков.
R24 - Количество осадков - Количество выпавших осадков за 24 часа, мм.
S - Снежный покров - Высота снежного покрова, см. При наведении курсора мыши на число - состояние снежного покрова и степень покрытия местности в баллах.